Tracking 29059 objects as of 17-Jun-2024
HD Live streaming from Space Station
objects crossing your sky now

STARLINK-3992

Track STARLINK-3992 now!
10-day predictions
STARLINK-3992 is classified as:


NORAD ID: 52627
Int'l Code: 2022-052AF
Perigee: 546.1 km
Apogee: 547.5 km
Inclination: 53.2 °
Period: 95.4 minutes
Semi major axis: 6917 km
RCS: Unknown
Launch date: May 14, 2022
Source: United States (US)
Launch site: AIR FORCE EASTERN TEST RANGE (AFETR)
Your satellite tracking list
Your tracking list is empty




NASA's NSSDC Master Catalog

Two Line Element Set (TLE):
1 52627U 22052AF  24168.84516433  .00001761  00000-0  12862-3 0  9995
2 52627  53.2156 221.0953 0001036  61.0637 299.0459 15.08864445115764
Source of the keplerian elements: AFSPC